| time (UTC) | temp F | wind direction | speed MPH | gust MPH | rain 1hr in | rain 24hr in | rain mn in | humidity % | barometer mb |
| 20260904223533 | 65 | 79 | 2.0 | 14.0 | 0.00 | 0.20 | 0.00 | 73 | 1014.3 |
| 20260904223027 | 65 | 105 | 2.0 | 16.0 | 0.00 | 0.20 | 0.00 | 73 | 1014.3 |
| 20260904222024 | 65 | 25 | 4.0 | 19.0 | 0.00 | 0.20 | 0.00 | 72 | 1014.2 |
| 20260904221520 | 65 | 223 | 3.0 | 19.0 | 0.00 | 0.20 | 0.00 | 71 | 1014.1 |
| 20260904221013 | 65 | 137 | 3.0 | 16.0 | 0.00 | 0.20 | 0.00 | 72 | 1014.1 |
| 20260904220526 | 65 | 122 | 3.0 | 14.0 | 0.00 | 0.20 | 0.00 | 71 | 1014.1 |
| 20260904220004 | 65 | 352 | 3.0 | 15.0 | 0.00 | 0.20 | 0.00 | 71 | 1014.0 |
| 20260904215508 | 65 | 107 | 2.0 | 15.0 | 0.00 | 0.20 | 0.20 | 70 | 1014.0 |
| 20260904214947 | 64 | 44 | 2.0 | 12.0 | 0.00 | 0.20 | 0.20 | 71 | 1014.1 |
| 20260904214433 | 64 | 77 | 3.0 | 14.0 | 0.00 | 0.20 | 0.20 | 71 | 1014.1 |
| 20260904213934 | 64 | 75 | 4.0 | 14.0 | 0.00 | 0.20 | 0.20 | 71 | 1014.1 |
| 20260904213411 | 64 | 87 | 2.0 | 16.0 | 0.00 | 0.20 | 0.20 | 74 | 1013.9 |
| 20260904212905 | 65 | 16 | 2.0 | 16.0 | 0.00 | 0.20 | 0.20 | 75 | 1013.9 |
| 20260904212406 | 65 | 86 | 3.0 | 20.0 | 0.00 | 0.20 | 0.20 | 76 | 1013.9 |
| 20260904211906 | 64 | 319 | 3.0 | 20.0 | 0.00 | 0.20 | 0.20 | 75 | 1013.8 |
| 20260904211333 | 64 | 34 | 3.0 | 16.0 | 0.00 | 0.20 | 0.20 | 76 | 1013.8 |
| 20260904210832 | 64 | 345 | 2.0 | 16.0 | 0.00 | 0.20 | 0.20 | 76 | 1013.7 |
| 20260904210311 | 64 | 94 | 1.0 | 13.0 | 0.00 | 0.20 | 0.20 | 76 | 1013.7 |
| 20260904205809 | 64 | 25 | 2.0 | 13.0 | 0.00 | 0.20 | 0.20 | 75 | 1013.7 |
| 20260904205313 | 64 | 8 | 2.0 | 12.0 | 0.00 | 0.20 | 0.20 | 75 | 1013.5 |
| 20260904204246 | 64 | 98 | 2.0 | 12.0 | 0.00 | 0.20 | 0.20 | 75 | 1013.5 |
| 20260904203733 | 64 | 100 | 2.0 | 12.0 | 0.00 | 0.20 | 0.20 | 74 | 1013.5 |
| 20260904203231 | 64 | 345 | 2.0 | 9.0 | 0.00 | 0.20 | 0.20 | 76 | 1013.5 |
| 20260904202708 | 64 | 77 | 2.0 | 14.0 | 0.00 | 0.20 | 0.20 | 76 | 1013.5 |
| 20260904202209 | 64 | 224 | 2.0 | 14.0 | 0.00 | 0.20 | 0.20 | 76 | 1013.5 |
| 20260904201709 | 64 | 70 | 2.0 | 12.0 | 0.00 | 0.20 | 0.20 | 75 | 1013.5 |
| 20260904201209 | 65 | 72 | 2.0 | 11.0 | 0.00 | 0.20 | 0.20 | 75 | 1013.4 |
| 20260904200709 | 65 | 66 | 3.0 | 11.0 | 0.00 | 0.20 | 0.20 | 74 | 1013.5 |
| 20260904195709 | 65 | 359 | 2.0 | 12.0 | 0.00 | 0.20 | 0.20 | 75 | 1013.3 |
| 20260904195209 | 65 | 325 | 2.0 | 12.0 | 0.00 | 0.20 | 0.20 | 75 | 1013.3 |
| 20260904194705 | 65 | 42 | 1.0 | 4.0 | 0.00 | 0.20 | 0.20 | 75 | 1013.2 |
| 20260904193632 | 65 | 18 | 3.0 | 18.0 | 0.00 | 0.20 | 0.20 | 76 | 1013.2 |
| 20260904193133 | 65 | 85 | 2.0 | 12.0 | 0.00 | 0.20 | 0.20 | 75 | 1013.0 |
| 20260904192619 | 65 | 358 | 2.0 | 11.0 | 0.00 | 0.20 | 0.20 | 75 | 1013.0 |
| 20260904192110 | 64 | 340 | 1.0 | 11.0 | 0.00 | 0.20 | 0.20 | 75 | 1012.9 |
| 20260904191615 | 64 | 293 | 2.0 | 8.0 | 0.00 | 0.20 | 0.20 | 76 | 1012.9 |
| 20260904191114 | 64 | 1 | 2.0 | 13.0 | 0.00 | 0.20 | 0.20 | 76 | 1012.9 |
| 20260904190108 | 64 | 351 | 2.0 | 15.0 | 0.00 | 0.20 | 0.20 | 76 | 1012.8 |
| 20260904185038 | 64 | 19 | 2.0 | 17.0 | 0.00 | 0.20 | 0.20 | 77 | 1012.6 |
| 20260904184040 | 64 | 16 | 2.0 | 14.0 | 0.00 | 0.20 | 0.20 | 76 | 1012.4 |
| 20260904183532 | 64 | 1 | 2.0 | 14.0 | 0.00 | 0.20 | 0.20 | 75 | 1012.4 |
| 20260904183028 | 64 | 342 | 2.0 | 18.0 | 0.00 | 0.20 | 0.20 | 75 | 1012.4 |
| 20260904182013 | 64 | 353 | 2.0 | 11.0 | 0.00 | 0.20 | 0.20 | 76 | 1012.2 |
| 20260904181511 | 64 | 66 | 1.0 | 16.0 | 0.00 | 0.20 | 0.20 | 76 | 1012.2 |
| 20260904180939 | 64 | 269 | 2.0 | 16.0 | 0.00 | 0.20 | 0.20 | 75 | 1012.2 |
| 20260904180440 | 64 | 103 | 4.0 | 6.0 | 0.00 | 0.20 | 0.20 | 74 | 1012.1 |
| 20260904175909 | 64 | 345 | 4.0 | 21.0 | 0.00 | 0.20 | 0.20 | 73 | 1012.0 |
| 20260904175411 | 65 | 80 | 4.0 | 21.0 | 0.00 | 0.20 | 0.20 | 72 | 1012.0 |
| 20260904174919 | 64 | 134 | 4.0 | 2.0 | 0.00 | 0.20 | 0.20 | 72 | 1012.1 |
| 20260904174419 | 65 | 63 | 4.0 | 21.0 | 0.00 | 0.20 | 0.20 | 72 | 1012.2 |
| 20260904173408 | 65 | 112 | 4.0 | 10.0 | 0.00 | 0.20 | 0.20 | 74 | 1011.8 |
| 20260904172911 | 65 | 101 | 4.0 | 20.0 | 0.00 | 0.20 | 0.20 | 74 | 1011.8 |
| 20260904172410 | 65 | 309 | 5.0 | 20.0 | 0.00 | 0.20 | 0.20 | 74 | 1011.8 |
| 20260904171912 | 64 | 264 | 3.0 | 7.0 | 0.00 | 0.20 | 0.20 | 73 | 1011.8 |
| 20260904170908 | 64 | 333 | 4.0 | 18.0 | 0.00 | 0.20 | 0.20 | 73 | 1011.7 |
| 20260904170405 | 65 | 107 | 4.0 | 17.0 | 0.00 | 0.20 | 0.20 | 75 | 1011.6 |
| 20260904165336 | 64 | 323 | 3.0 | 15.0 | 0.00 | 0.20 | 0.20 | 75 | 1011.7 |
| 20260904164834 | 65 | 353 | 3.0 | 12.0 | 0.00 | 0.20 | 0.20 | 76 | 1011.7 |
| 20260904164307 | 65 | 109 | 4.0 | 15.0 | 0.00 | 0.20 | 0.20 | 75 | 1011.7 |
| 20260904163308 | 65 | 345 | 5.0 | 15.0 | 0.00 | 0.20 | 0.20 | 75 | 1011.5 |
| 20260904162807 | 65 | 326 | 4.0 | 17.0 | 0.00 | 0.20 | 0.20 | 74 | 1011.4 |
| 20260904162308 | 65 | 30 | 4.0 | 17.0 | 0.00 | 0.20 | 0.20 | 75 | 1011.4 |
| 20260904161813 | 65 | 43 | 3.0 | 17.0 | 0.00 | 0.20 | 0.20 | 76 | 1011.4 |
| 20260904161307 | 65 | 120 | 4.0 | 17.0 | 0.00 | 0.20 | 0.20 | 76 | 1011.4 |
| 20260904160810 | 65 | 49 | 5.0 | 21.0 | 0.00 | 0.20 | 0.20 | 75 | 1011.2 |
| 20260904160311 | 65 | 72 | 4.0 | 21.0 | 0.00 | 0.20 | 0.20 | 75 | 1011.1 |
| 20260904155327 | 65 | 61 | 2.0 | 17.0 | 0.00 | 0.20 | 0.20 | 75 | 1010.9 |
| 20260904154817 | 65 | 104 | 3.0 | 6.0 | 0.00 | 0.20 | 0.20 | 78 | 1010.8 |
| 20260904154309 | 65 | 354 | 3.0 | 17.0 | 0.00 | 0.20 | 0.20 | 78 | 1010.8 |
| 20260904153815 | 65 | 110 | 2.0 | 17.0 | 0.00 | 0.20 | 0.20 | 77 | 1010.8 |
| 20260904153318 | 65 | 342 | 2.0 | 4.0 | 0.00 | 0.20 | 0.20 | 80 | 1010.7 |
| 20260904152810 | 65 | 39 | 2.0 | 17.0 | 0.00 | 0.20 | 0.20 | 80 | 1010.7 |
| 20260904152312 | 65 | 302 | 2.0 | 17.0 | 0.00 | 0.20 | 0.20 | 79 | 1010.8 |
| 20260904151821 | 65 | 303 | 2.0 | 15.0 | 0.00 | 0.20 | 0.20 | 77 | 1010.7 |
| 20260904151310 | 65 | 102 | 3.0 | 15.0 | 0.00 | 0.20 | 0.20 | 76 | 1010.8 |
| 20260904150312 | 65 | 81 | 3.0 | 17.0 | 0.00 | 0.20 | 0.20 | 75 | 1010.7 |
| 20260904145812 | 65 | 210 | 2.0 | 14.0 | 0.00 | 0.20 | 0.20 | 78 | 1010.8 |
| 20260904144811 | 65 | 337 | 2.0 | 4.0 | 0.00 | 0.20 | 0.20 | 89 | 1010.4 |
| 20260904144307 | 65 | 40 | 2.0 | 13.0 | 0.00 | 0.20 | 0.20 | 90 | 1010.4 |
| 20260904143805 | 64 | 65 | 2.0 | 13.0 | 0.00 | 0.20 | 0.20 | 90 | 1010.5 |
| 20260904143303 | 64 | 94 | 3.0 | 11.0 | 0.00 | 0.20 | 0.20 | 92 | 1010.3 |
| 20260904141706 | 62 | 349 | 3.0 | 17.0 | 0.00 | 0.20 | 0.20 | 93 | 1010.0 |
| 20260904141207 | 62 | 65 | 2.0 | 9.0 | 0.00 | 0.20 | 0.20 | 93 | 1009.9 |
| 20260904140711 | 62 | 349 | 2.0 | 8.0 | 0.00 | 0.20 | 0.20 | 93 | 1010.0 |
| 20260904140209 | 62 | 192 | 2.0 | 10.0 | 0.00 | 0.20 | 0.20 | 93 | 1009.9 |
| 20260904135709 | 62 | 105 | 2.0 | 13.0 | 0.00 | 0.20 | 0.20 | 93 | 1009.7 |
| 20260904135207 | 63 | 204 | 2.0 | 13.0 | 0.00 | 0.20 | 0.20 | 93 | 1009.6 |
| 20260904134715 | 62 | 323 | 3.0 | 3.0 | 0.00 | 0.20 | 0.20 | 93 | 1009.5 |
| 20260904133712 | 62 | 77 | 3.0 | 17.0 | 0.00 | 0.20 | 0.20 | 93 | 1009.5 |
| 20260904133209 | 62 | 340 | 3.0 | 15.0 | 0.00 | 0.20 | 0.20 | 93 | 1009.6 |
| 20260904132704 | 62 | 126 | 2.0 | 14.0 | 0.00 | 0.20 | 0.20 | 93 | 1009.6 |
| 20260904132214 | 62 | 73 | 2.0 | 14.0 | 0.00 | 0.20 | 0.20 | 93 | 1009.7 |
| 20260904131704 | 63 | 117 | 2.0 | 4.0 | 0.00 | 0.20 | 0.20 | 93 | 1009.2 |
| 20260904131135 | 63 | 51 | 3.0 | 17.0 | 0.00 | 0.20 | 0.20 | 93 | 1008.9 |
| 20260904130645 | 63 | 93 | 3.0 | 17.0 | 0.00 | 0.20 | 0.20 | 93 | 1009.0 |
| 20260904130126 | 63 | 91 | 2.0 | 7.0 | 0.00 | 0.20 | 0.20 | 94 | 1009.0 |
| 20260904125616 | 63 | 94 | 2.0 | 15.0 | 0.00 | 0.20 | 0.16 | 94 | 1008.9 |
| 20260904125113 | 63 | 90 | 3.0 | 15.0 | 0.01 | 0.20 | 0.16 | 94 | 1009.0 |
| 20260904124611 | 63 | 1 | 3.0 | 14.0 | 0.01 | 0.20 | 0.16 | 94 | 1009.1 |
| 20260904124106 | 63 | 14 | 3.0 | 14.0 | 0.01 | 0.20 | 0.16 | 94 | 1008.8 |
| 20260904123612 | 63 | 68 | 2.0 | 7.0 | 0.01 | 0.20 | 0.16 | 94 | 1008.8 |
| 20260904122609 | 64 | 33 | 2.0 | 7.0 | 0.02 | 0.20 | 0.16 | 94 | 1008.7 |
| 20260904122123 | 63 | 359 | 1.0 | 4.0 | 0.03 | 0.20 | 0.16 | 93 | 1008.6 |
| 20260904121132 | 63 | 338 | 2.0 | 10.0 | 0.03 | 0.20 | 0.16 | 93 | 1008.7 |
| 20260904120610 | 62 | 52 | 2.0 | 9.0 | 0.05 | 0.20 | 0.16 | 93 | 1008.7 |
| 20260904120144 | 62 | 119 | 2.0 | 9.0 | 0.05 | 0.20 | 0.20 | 93 | 1008.4 |
| 20260904115603 | 62 | 329 | 3.0 | 9.0 | 0.06 | 0.20 | 0.20 | 93 | 1008.5 |
| 20260904115054 | 62 | 340 | 3.0 | 13.0 | 0.06 | 0.20 | 0.20 | 93 | 1008.1 |
| 20260904114525 | 62 | 297 | 4.0 | 13.0 | 0.06 | 0.20 | 0.20 | 93 | 1008.5 |
| 20260904114022 | 63 | 14 | 5.0 | 7.0 | 0.07 | 0.20 | 0.20 | 93 | 1008.3 |
| 20260904113516 | 63 | 18 | 5.0 | 15.0 | 0.08 | 0.19 | 0.19 | 93 | 1008.1 |
| 20260904113023 | 63 | 316 | 4.0 | 15.0 | 0.08 | 0.19 | 0.18 | 93 | 1008.3 |
| 20260904112524 | 63 | 321 | 5.0 | 13.0 | 0.07 | 0.18 | 0.18 | 93 | 1008.3 |
| 20260904111532 | 63 | 23 | 3.0 | 11.0 | 0.08 | 0.17 | 0.17 | 92 | 1008.2 |
| 20260904111043 | 63 | 101 | 3.0 | 11.0 | 0.09 | 0.17 | 0.17 | 92 | 1008.4 |
| 20260904110527 | 63 | 330 | 3.0 | 10.0 | 0.12 | 0.16 | 0.16 | 92 | 1008.5 |
| 20260904110008 | 63 | 280 | 2.0 | 10.0 | 0.13 | 0.16 | 0.16 | 92 | 1008.4 |
| 20260904105521 | 63 | 336 | 2.0 | 10.0 | 0.13 | 0.15 | 0.14 | 92 | 1008.4 |
| 20260904104510 | 63 | 1 | 2.0 | 7.0 | 0.13 | 0.13 | 0.13 | 91 | 1008.3 |
| 20260904103937 | 63 | 329 | 1.0 | 10.0 | 0.13 | 0.13 | 0.13 | 91 | 1008.3 |
| 20260904103439 | 63 | 345 | 2.0 | 7.0 | 0.11 | 0.11 | 0.11 | 91 | 1008.1 |
| 20260904102911 | 63 | 54 | 2.0 | 10.0 | 0.11 | 0.11 | 0.11 | 91 | 1008.0 |
| 20260904102413 | 63 | 11 | 1.0 | 10.0 | 0.11 | 0.11 | 0.11 | 90 | 1007.7 |
| 20260904101910 | 64 | 338 | 1.0 | 1.0 | 0.09 | 0.09 | 0.09 | 90 | 1008.2 |
| 20260904101344 | 64 | 327 | 1.0 | 11.0 | 0.09 | 0.09 | 0.09 | 90 | 1008.3 |
| 20260904100832 | 64 | 344 | 1.0 | 11.0 | 0.08 | 0.08 | 0.07 | 90 | 1008.5 |
| 20260904100334 | 65 | 321 | 2.0 | 5.0 | 0.04 | 0.04 | 0.03 | 88 | 1008.6 |
| 20260904095813 | 65 | 58 | 2.0 | 13.0 | 0.03 | 0.03 | 0.02 | 88 | 1008.8 |
| 20260904095306 | 66 | 323 | 4.0 | 13.0 | 0.01 | 0.01 | 0.01 | 86 | 1008.5 |
| 20260904094809 | 67 | 77 | 4.0 | 13.0 | 0.00 | 0.00 | 0.00 | 82 | 1008.3 |
| 20260904094253 | 67 | 6 | 3.0 | 13.0 | 0.00 | 0.00 | 0.00 | 82 | 1008.3 |
| 20260904093736 | 67 | 330 | 2.0 | 12.0 | 0.00 | 0.00 | 0.00 | 83 | 1008.2 |
| 20260904093235 | 67 | 335 | 2.0 | 12.0 | 0.00 | 0.00 | 0.00 | 85 | 1008.0 |
| 20260904092732 | 67 | 81 | 2.0 | 12.0 | 0.00 | 0.00 | 0.00 | 84 | 1007.8 |
| 20260904091707 | 67 | 270 | 3.0 | 7.0 | 0.00 | 0.00 | 0.00 | 88 | 1007.6 |
| 20260904090706 | 66 | 20 | 2.0 | 15.0 | 0.00 | 0.00 | 0.00 | 88 | 1007.5 |
| 20260904085709 | 66 | 340 | 3.0 | 15.0 | 0.00 | 0.00 | 0.00 | 88 | 1007.5 |
| 20260904084633 | 68 | 25 | 4.0 | 11.0 | 0.00 | 0.00 | 0.00 | 88 | 1007.3 |
| 20260904084134 | 68 | 11 | 8.0 | 22.0 | 0.00 | 0.00 | 0.00 | 88 | 1007.2 |
| 20260904083107 | 70 | 58 | 9.0 | 20.0 | 0.00 | 0.00 | 0.00 | 87 | 1006.6 |
| 20260904082541 | 70 | 91 | 9.0 | 18.0 | 0.00 | 0.00 | 0.00 | 86 | 1006.6 |
| 20260904082035 | 70 | 95 | 9.0 | 22.0 | 0.00 | 0.00 | 0.00 | 87 | 1006.4 |
| 20260904081035 | 70 | 106 | 8.0 | 21.0 | 0.00 | 0.00 | 0.00 | 87 | 1006.5 |
| 20260904080526 | 70 | 165 | 9.0 | 16.0 | 0.00 | 0.00 | 0.00 | 87 | 1006.6 |
| 20260904080015 | 70 | 22 | 9.0 | 21.0 | 0.00 | 0.00 | 0.00 | 87 | 1006.7 |
| 20260904075453 | 70 | 46 | 9.0 | 20.0 | 0.00 | 0.00 | 0.00 | 87 | 1006.6 |
| 20260904074939 | 70 | 316 | 9.0 | 20.0 | 0.00 | 0.00 | 0.00 | 87 | 1006.5 |
| 20260904074436 | 70 | 266 | 9.0 | 20.0 | 0.00 | 0.00 | 0.00 | 87 | 1006.5 |
| 20260904073906 | 70 | 52 | 9.0 | 18.0 | 0.00 | 0.00 | 0.00 | 87 | 1006.6 |
| 20260904073408 | 70 | 103 | 8.0 | 15.0 | 0.00 | 0.00 | 0.00 | 87 | 1006.7 |
| 20260904072853 | 70 | 34 | 7.0 | 25.0 | 0.00 | 0.00 | 0.00 | 87 | 1006.8 |
| 20260904072334 | 70 | 269 | 7.0 | 25.0 | 0.00 | 0.00 | 0.00 | 87 | 1006.9 |
| 20260904071835 | 70 | 342 | 10.0 | 16.0 | 0.00 | 0.00 | 0.00 | 86 | 1006.9 |
| 20260904071339 | 70 | 60 | 9.0 | 21.0 | 0.00 | 0.00 | 0.00 | 87 | 1007.1 |
| 20260904070833 | 70 | 307 | 9.0 | 21.0 | 0.00 | 0.00 | 0.00 | 86 | 1007.0 |
| 20260904070335 | 70 | 36 | 6.0 | 10.0 | 0.00 | 0.00 | 0.00 | 86 | 1006.8 |
| 20260904065810 | 70 | 217 | 6.0 | 19.0 | 0.00 | 0.00 | 0.00 | 86 | 1006.9 |
| 20260904065311 | 70 | 350 | 6.0 | 19.0 | 0.00 | 0.00 | 0.00 | 87 | 1006.9 |
| 20260904064808 | 69 | 158 | 6.0 | 16.0 | 0.00 | 0.00 | 0.00 | 87 | 1007.3 |
| 20260904063806 | 69 | 123 | 7.0 | 18.0 | 0.00 | 0.00 | 0.00 | 87 | 1007.3 |
| 20260904063307 | 69 | 139 | 7.0 | 18.0 | 0.00 | 0.00 | 0.00 | 87 | 1007.3 |
| 20260904062232 | 69 | 132 | 7.0 | 17.0 | 0.00 | 0.00 | 0.00 | 87 | 1007.3 |
| 20260904061732 | 69 | 186 | 7.0 | 16.0 | 0.00 | 0.00 | 0.00 | 87 | 1007.5 |
| 20260904061208 | 69 | 309 | 6.0 | 14.0 | 0.00 | 0.00 | 0.00 | 87 | 1007.6 |
| 20260904060708 | 69 | 226 | 8.0 | 18.0 | 0.00 | 0.00 | 0.00 | 88 | 1007.6 |
| 20260904055715 | 69 | 222 | 7.0 | 18.0 | 0.00 | 0.00 | 0.00 | 88 | 1007.7 |
| 20260904055209 | 69 | 292 | 6.0 | 18.0 | 0.00 | 0.00 | 0.00 | 88 | 1007.7 |
| 20260904054216 | 69 | 172 | 6.0 | 19.0 | 0.00 | 0.00 | 0.00 | 88 | 1008.0 |
| 20260904053210 | 69 | 113 | 6.0 | 16.0 | 0.00 | 0.00 | 0.00 | 88 | 1008.3 |
| 20260904052706 | 69 | 119 | 6.0 | 16.0 | 0.00 | 0.01 | 0.00 | 88 | 1008.4 |
| 20260904051204 | 68 | 130 | 5.0 | 18.0 | 0.00 | 0.01 | 0.00 | 87 | 1008.5 |
| 20260904050632 | 68 | 98 | 5.0 | 13.0 | 0.00 | 0.01 | 0.00 | 88 | 1008.6 |
| 20260904050137 | 68 | 133 | 5.0 | 15.0 | 0.00 | 0.01 | 0.00 | 88 | 1008.6 |
| 20260904045633 | 68 | 264 | 4.0 | 15.0 | 0.00 | 0.01 | 0.00 | 88 | 1008.6 |
| 20260904045107 | 68 | 174 | 4.0 | 12.0 | 0.00 | 0.01 | 0.00 | 88 | 1008.6 |
| 20260904044608 | 68 | 153 | 4.0 | 12.0 | 0.00 | 0.01 | 0.00 | 88 | 1008.5 |
| 20260904043611 | 69 | 51 | 6.0 | 16.0 | 0.00 | 0.01 | 0.00 | 89 | 1009.1 |
| 20260904042541 | 69 | 128 | 6.0 | 16.0 | 0.00 | 0.01 | 0.00 | 89 | 1009.1 |
| 20260904042044 | 69 | 70 | 4.0 | 11.0 | 0.00 | 0.01 | 0.00 | 89 | 1009.1 |
| 20260904041532 | 69 | 247 | 4.0 | 11.0 | 0.00 | 0.01 | 0.00 | 89 | 1009.3 |
| 20260904041026 | 69 | 257 | 4.0 | 11.0 | 0.00 | 0.01 | 0.00 | 89 | 1009.3 |
| 20260904040029 | 69 | 262 | 4.0 | 12.0 | 0.00 | 0.01 | 0.00 | 89 | 1009.6 |
| 20260904035504 | 69 | 197 | 4.0 | 12.0 | 0.00 | 0.01 | 0.00 | 89 | 1009.5 |
| 20260904034932 | 69 | 89 | 3.0 | 11.0 | 0.00 | 0.01 | 0.00 | 89 | 1009.7 |
| 20260904034431 | 69 | 278 | 3.0 | 11.0 | 0.00 | 0.01 | 0.00 | 89 | 1009.7 |
| 20260904033933 | 69 | 256 | 3.0 | 11.0 | 0.00 | 0.01 | 0.00 | 89 | 1009.8 |
| 20260904033425 | 69 | 276 | 4.0 | 12.0 | 0.00 | 0.01 | 0.00 | 89 | 1009.9 |
| 20260904032924 | 69 | 176 | 4.0 | 12.0 | 0.00 | 0.01 | 0.00 | 89 | 1010.0 |
| 20260904032411 | 69 | 196 | 4.0 | 11.0 | 0.00 | 0.01 | 0.00 | 89 | 1010.0 |
| 20260904031907 | 69 | 254 | 4.0 | 10.0 | 0.00 | 0.01 | 0.00 | 89 | 1010.0 |
| 20260904031407 | 69 | 347 | 4.0 | 13.0 | 0.00 | 0.01 | 0.00 | 89 | 1010.0 |
| 20260904030901 | 69 | 157 | 4.0 | 13.0 | 0.00 | 0.01 | 0.00 | 89 | 1010.0 |
| 20260904030332 | 69 | 244 | 4.0 | 10.0 | 0.00 | 0.01 | 0.00 | 89 | 1010.2 |
| 20260904025833 | 69 | 212 | 3.0 | 10.0 | 0.00 | 0.01 | 0.00 | 89 | 1010.1 |
| 20260904025339 | 69 | 215 | 3.0 | 11.0 | 0.00 | 0.01 | 0.00 | 89 | 1010.1 |
| 20260904024314 | 69 | 283 | 3.0 | 12.0 | 0.00 | 0.01 | 0.00 | 89 | 1010.3 |
| 20260904023309 | 69 | 247 | 3.0 | 6.0 | 0.00 | 0.01 | 0.00 | 89 | 1010.5 |
| 20260904022307 | 69 | 216 | 2.0 | 14.0 | 0.00 | 0.01 | 0.00 | 89 | 1010.5 |
| 20260904021810 | 69 | 185 | 4.0 | 15.0 | 0.00 | 0.01 | 0.00 | 90 | 1010.7 |
| 20260904020733 | 69 | 205 | 4.0 | 14.0 | 0.00 | 0.01 | 0.00 | 90 | 1010.8 |
| 20260904020235 | 69 | 263 | 4.0 | 11.0 | 0.00 | 0.01 | 0.00 | 90 | 1010.9 |
| 20260904015733 | 69 | 237 | 4.0 | 11.0 | 0.00 | 0.01 | 0.00 | 90 | 1011.0 |
| 20260904015213 | 69 | 252 | 4.0 | 14.0 | 0.00 | 0.01 | 0.00 | 90 | 1011.0 |
| 20260904014635 | 69 | 229 | 3.0 | 14.0 | 0.00 | 0.01 | 0.00 | 90 | 1011.0 |
| 20260904014134 | 69 | 229 | 3.0 | 12.0 | 0.00 | 0.01 | 0.00 | 90 | 1011.2 |
| 20260904013611 | 69 | 93 | 3.0 | 12.0 | 0.00 | 0.01 | 0.00 | 90 | 1011.2 |
| 20260904013107 | 69 | 98 | 3.0 | 10.0 | 0.00 | 0.01 | 0.00 | 90 | 1011.4 |
| 20260904012052 | 69 | 193 | 4.0 | 11.0 | 0.00 | 0.01 | 0.00 | 89 | 1011.5 |
| 20260904011534 | 69 | 203 | 4.0 | 11.0 | 0.00 | 0.01 | 0.00 | 89 | 1011.5 |
| 20260904011102 | 69 | 349 | 3.0 | 11.0 | 0.00 | 0.01 | 0.00 | 89 | 1011.5 |
| 20260904010546 | 69 | 193 | 3.0 | 5.0 | 0.00 | 0.01 | 0.00 | 89 | 1011.6 |
| 20260904010007 | 69 | 198 | 3.0 | 11.0 | 0.00 | 0.01 | 0.00 | 89 | 1011.7 |
| 20260904005048 | 69 | 194 | 3.0 | 13.0 | 0.00 | 0.02 | 0.00 | 88 | 1011.8 |
| 20260904004519 | 69 | 216 | 3.0 | 13.0 | 0.00 | 0.02 | 0.00 | 88 | 1011.8 |
| 20260904004032 | 69 | 238 | 3.0 | 11.0 | 0.00 | 0.02 | 0.00 | 87 | 1011.8 |
| 20260904003539 | 69 | 233 | 3.0 | 11.0 | 0.00 | 0.02 | 0.00 | 87 | 1011.9 |
| 20260904002536 | 69 | 240 | 2.0 | 12.0 | 0.00 | 0.02 | 0.00 | 89 | 1012.0 |
| 20260904002057 | 69 | 215 | 4.0 | 12.0 | 0.00 | 0.02 | 0.00 | 90 | 1012.0 |
| 20260904001521 | 69 | 104 | 4.0 | 12.0 | 0.00 | 0.02 | 0.00 | 90 | 1012.1 |
| 20260904000953 | 69 | 202 | 4.0 | 12.0 | 0.00 | 0.02 | 0.00 | 90 | 1012.1 |
| 20260904000433 | 69 | 284 | 3.0 | 12.0 | 0.00 | 0.02 | 0.00 | 90 | 1012.0 |
| 20260903235937 | 69 | 212 | 3.0 | 12.0 | 0.00 | 0.02 | 0.00 | 90 | 1012.0 |
| 20260903235434 | 69 | 233 | 3.0 | 11.0 | 0.00 | 0.02 | 0.00 | 90 | 1012.1 |
| 20260903234912 | 69 | 275 | 2.0 | 10.0 | 0.00 | 0.02 | 0.00 | 90 | 1012.3 |
| 20260903234408 | 69 | 184 | 3.0 | 10.0 | 0.00 | 0.02 | 0.00 | 90 | 1012.3 |
| 20260903233921 | 69 | 169 | 2.0 | 10.0 | 0.00 | 0.02 | 0.00 | 90 | 1012.2 |
| 20260903232905 | 69 | 273 | 1.0 | 11.0 | 0.00 | 0.03 | 0.00 | 90 | 1012.0 |
| 20260903231833 | 68 | 81 | 2.0 | 10.0 | 0.00 | 0.04 | 0.00 | 90 | 1012.5 |
| 20260903231332 | 68 | 86 | 2.0 | 11.0 | 0.00 | 0.04 | 0.00 | 90 | 1012.5 |
| 20260903230840 | 68 | 282 | 1.0 | 11.0 | 0.00 | 0.04 | 0.00 | 90 | 1012.6 |
| 20260903230407 | 68 | 232 | 1.0 | 7.0 | 0.00 | 0.04 | 0.00 | 90 | 1012.8 |
| 20260903225832 | 68 | 224 | 1.0 | 8.0 | 0.00 | 0.04 | 0.00 | 90 | 1012.9 |
| 20260903225317 | 68 | 199 | 1.0 | 8.0 | 0.00 | 0.04 | 0.00 | 90 | 1013.0 |
| 20260903224812 | 68 | 123 | 1.0 | 9.0 | 0.00 | 0.06 | 0.00 | 90 | 1013.0 |
| 20260903224308 | 68 | 79 | 1.0 | 9.0 | 0.00 | 0.06 | 0.00 | 90 | 1013.2 |